Theta_e
350 357 359 350 328 326 318 321 326 325 326 334 334 329 328 332 327 322 348 351 354 356 359 361 367 367 362 365 366 364 363 363 365 363 362 362 362 362 361 361 360 361 361 360 359 356 356 355 355
356 355 353 337 322 314 314 322 322 326 331 336 335 332 330 328 339 341 344 353 355 357 358 358 366 362 362 364 366 365 362 362 363 363 362 361 360 359 359 359 359 360 360 359 359 358 357 356 354
344 349 341 330 322 316 317 322 324 328 333 333 332 335 333 332 339 344 351 354 357 357 359 360 367 364 364 365 365 365 364 361 361 361 361 360 359 358 359 358 359 359 359 359 359 359 357 358 356
346 345 337 324 318 321 321 324 328 329 334 335 334 328 338 344 343 348 354 355 355 356 359 365 366 364 365 365 364 363 363 362 361 361 360 359 359 359 359 359 358 358 356 356 356 356 357 357 356
349 337 324 321 320 323 327 330 332 329 332 332 332 328 332 343 349 353 354 354 353 354 358 362 367 366 366 363 364 363 363 362 362 361 361 360 359 359 359 357 356 355 355 355 355 356 357 356 355
332 332 318 316 319 325 329 332 334 332 334 333 331 331 334 348 349 352 354 353 354 355 358 360 365 365 364 364 364 363 363 363 362 361 361 361 359 358 356 357 357 356 355 357 357 358 358 355 354
329 326 318 318 317 322 328 335 331 331 332 331 336 329 337 344 350 352 353 354 355 358 358 361 361 364 365 364 363 363 363 363 362 362 361 360 359 358 357 356 357 355 354 354 352 356 356 355 354
333 329 319 319 318 319 331 333 335 333 330 339 339 330 332 343 350 352 353 353 355 357 360 362 364 364 364 364 365 363 363 363 361 361 361 361 358 359 355 356 355 356 356 353 352 352 355 356 355
334 321 317 317 319 322 334 331 335 335 332 335 337 337 341 348 349 348 349 351 355 357 359 360 360 363 364 362 362 361 361 361 362 361 360 359 358 356 356 357 358 355 352 354 356 353 354 355 355
325 319 316 323 326 326 333 333 332 330 330 332 334 340 344 346 345 344 344 345 349 352 355 356 357 357 359 355 361 363 364 363 362 363 363 362 359 358 357 359 356 356 351 350 352 351 352 353 356
320 316 321 324 329 331 331 333 333 330 327 332 333 338 341 342 343 343 343 344 346 349 351 355 358 357 354 354 359 359 365 364 356 362 362 362 358 356 356 362 363 360 357 355 352 354 354 354 354
311 319 323 326 332 331 330 333 330 331 332 336 339 342 342 341 340 339 340 343 345 349 352 356 357 358 360 358 357 358 359 364 359 355 357 356 355 358 359 362 361 357 356 357 357 356 355 353 354
312 312 315 318 332 333 334 331 331 332 336 338 340 342 341 341 342 342 343 345 347 347 352 355 357 358 360 360 356 358 356 356 355 354 350 352 354 357 359 358 358 359 353 356 355 356 354 354 353
313 312 313 319 330 333 330 330 332 333 338 336 338 340 341 342 343 344 346 347 348 349 350 353 355 358 360 357 358 358 358 357 356 355 352 355 354 356 356 360 359 358 355 355 355 356 355 354 354
312 311 316 325 329 329 333 327 327 334 337 334 335 338 341 342 344 344 346 347 350 350 352 352 354 356 358 358 358 358 356 355 353 354 357 358 356 354 359 360 358 357 361 359 357 356 357 355 352
311 312 307 312 328 330 330 318 328 335 334 334 335 337 339 341 343 346 347 348 350 351 352 353 352 353 356 357 359 358 356 355 356 356 356 358 356 356 358 358 357 361 359 355 358 355 355 355 354
309 304 305 308 322 323 328 319 328 334 334 333 335 336 337 339 341 344 346 347 349 352 353 353 354 354 355 358 358 358 357 356 356 356 355 358 356 355 359 358 356 358 358 355 357 356 356 353 352
303 303 305 305 310 320 317 318 327 332 332 332 334 335 337 337 339 343 345 347 349 351 354 355 354 357 358 359 356 358 356 357 356 355 355 358 356 357 358 357 352 354 351 353 349 351 351 354 354
305 304 304 308 312 309 310 313 319 331 330 331 332 334 335 337 341 344 345 347 348 350 352 353 354 357 356 352 351 353 350 352 353 354 354 356 357 357 358 354 352 350 349 352 354 354 350 356 355
305 304 305 308 314 314 319 320 324 328 331 331 331 332 334 336 338 340 342 345 346 348 350 352 354 355 355 355 354 353 352 352 353 354 353 352 354 357 357 355 355 357 356 357 356 355 358 353 353
306 304 304 304 308 318 317 314 316 324 331 333 333 333 334 334 335 338 339 342 344 347 349 351 354 356 357 357 354 352 352 352 349 349 349 349 353 354 357 357 357 357 357 355 358 357 355 350 350
304 307 306 304 309 305 315 302 314 317 322 329 330 332 333 333 336 337 339 341 342 346 350 353 355 356 356 355 352 352 352 345 348 350 351 352 358 359 358 359 359 359 357 359 357 357 357 353 347
306 312 312 312 311 308 307 307 310 316 317 320 327 331 332 333 336 336 338 342 345 345 348 351 354 355 356 354 355 352 350 349 351 349 352 356 360 359 358 360 360 361 358 361 363 361 362 355 352
312 311 308 308 308 300 306 307 306 312 316 319 323 326 332 334 335 338 340 342 344 347 348 348 352 352 356 355 355 354 352 350 347 348 356 359 357 357 359 358 361 362 361 361 365 363 361 360 355
308 306 299 298 299 298 306 305 309 316 319 321 322 326 329 335 335 337 338 340 344 346 347 345 349 352 354 354 354 353 353 353 351 350 349 352 351 354 357 358 358 358 362 361 361 364 362 362 360
307 305 300 293 296 298 304 302 308 318 321 323 328 325 328 333 335 335 339 342 342 345 347 349 349 352 353 353 354 354 355 350 349 350 348 349 351 352 358 357 355 354 360 361 362 365 364 362 363
303 302 305 300 301 300 303 308 314 317 321 323 327 329 327 331 332 334 339 342 342 345 345 349 350 352 352 352 354 354 354 353 350 352 354 351 357 356 358 358 359 359 360 360 361 357 362 360 363
306 308 302 303 296 295 301 303 307 315 319 323 326 329 331 331 333 332 336 341 344 344 344 347 351 350 351 352 354 353 353 354 354 353 353 354 356 358 359 358 358 359 360 360 360 359 361 360 358
304 304 302 304 302 298 297 302 314 317 321 321 325 329 330 331 332 334 335 341 344 345 346 345 346 348 350 351 352 353 353 354 353 352 353 355 357 358 359 360 361 359 355 356 356 356 356 356 361
306 304 306 301 300 302 304 305 315 320 323 324 326 328 329 334 332 336 338 341 342 343 344 346 348 347 349 351 352 352 353 354 352 352 353 355 356 357 358 358 358 358 358 357 355 353 356 359 358
Wind_Speed
3 1 1 2 0 3 4 4 1 5 2 2 1 4 2 3 4 3 7 8 19 17 16 16 14 15 16 15 14 13 13 13 13 12 12 10 10 10 10 10 9 7 7 5 5 3 3 4 3
2 1 1 1 3 3 2 1 2 3 1 3 4 5 2 4 3 8 14 12 19 17 15 15 13 17 14 15 15 13 14 13 12 11 10 9 9 8 8 8 8 8 8 7 6 5 3 4 3
1 1 2 3 3 3 3 3 3 3 3 1 3 5 3 3 3 15 8 19 17 16 13 14 13 16 14 14 15 12 12 12 11 11 10 9 7 6 6 6 7 7 7 7 6 6 5 5 4
1 1 2 4 7 3 1 3 2 2 3 5 5 6 5 5 10 5 17 18 17 15 14 14 14 15 14 14 15 13 12 12 11 10 9 8 7 5 5 5 4 4 2 3 4 4 5 6 5
1 1 4 3 3 1 2 1 3 3 4 7 4 4 5 5 5 15 18 16 17 15 13 14 13 13 12 12 14 13 11 11 10 9 8 7 6 5 4 2 1 0 1 2 3 4 5 6 5
2 1 3 4 3 2 2 3 4 3 4 5 5 6 4 5 12 15 16 15 15 14 13 13 13 12 12 12 13 12 11 10 9 8 8 7 5 4 2 2 2 0 1 3 3 6 7 5 4
3 2 2 2 2 3 1 6 2 2 5 2 10 5 4 7 11 14 14 13 13 13 12 10 12 12 12 12 12 11 10 11 9 8 6 6 5 3 3 2 2 2 3 1 2 4 4 4 5
2 1 1 1 1 2 2 5 1 3 2 7 5 5 7 13 15 13 13 13 13 12 12 11 10 11 11 11 12 10 10 9 8 7 7 7 5 5 4 3 1 3 3 3 3 1 3 5 5
2 1 2 1 3 1 4 6 3 2 4 3 3 3 8 20 17 15 14 12 11 10 11 10 11 10 9 8 8 9 9 9 9 8 7 7 4 5 4 3 5 6 6 6 5 3 2 4 5
1 1 3 2 3 2 6 5 7 4 5 5 5 8 19 21 19 18 17 15 15 14 13 12 11 11 10 7 7 7 7 4 5 4 5 4 4 4 4 4 7 7 11 11 10 8 5 5 3
1 3 2 4 6 1 4 7 5 5 7 8 10 16 19 21 18 18 17 16 16 14 12 12 11 10 10 8 6 4 3 4 5 5 5 5 4 4 3 2 3 4 8 5 6 4 4 4 4
3 6 6 5 5 6 5 4 5 10 4 4 10 20 21 21 19 19 17 16 16 15 14 13 12 10 10 6 6 6 5 4 4 5 5 4 4 3 4 3 4 4 2 6 5 4 3 5 5
4 9 7 8 4 4 6 6 5 7 8 3 15 19 21 20 19 17 16 15 14 14 14 13 12 11 9 9 6 5 5 5 5 5 5 4 3 3 3 4 4 4 4 5 5 5 4 4 5
7 11 12 4 3 5 6 3 3 3 8 10 16 19 18 19 20 17 15 15 15 14 15 14 13 12 10 9 8 6 5 5 5 5 5 5 4 4 4 2 3 3 3 5 4 4 4 4 4
7 8 5 5 2 2 4 6 11 3 12 14 14 15 17 18 17 19 17 17 16 13 13 15 14 13 11 10 8 6 5 6 5 5 6 5 5 4 3 2 3 3 3 5 4 5 4 4 5
4 1 6 3 4 3 7 13 6 10 14 15 15 15 15 18 21 18 17 17 16 14 14 13 11 13 12 10 7 6 6 6 6 5 5 6 6 5 4 2 1 1 2 3 3 4 4 3 4
3 5 8 9 3 2 10 13 3 11 14 13 15 16 16 16 16 17 18 17 17 16 14 14 13 13 13 11 7 8 7 6 6 5 5 5 6 6 4 2 1 3 2 2 3 4 3 3 3
5 6 7 10 3 5 10 21 11 11 14 15 14 15 15 16 21 19 19 17 17 17 15 14 11 13 11 7 6 5 5 6 5 5 5 5 6 6 5 3 2 4 2 3 4 5 4 3 3
6 7 10 20 10 7 9 18 17 12 15 15 16 17 18 20 17 15 16 16 15 15 15 16 14 13 9 7 7 6 7 6 6 6 6 6 6 6 5 3 3 3 4 4 5 4 4 4 2
7 9 12 13 4 5 5 17 17 11 18 21 20 18 19 18 16 15 16 17 17 17 17 15 15 13 12 8 6 4 7 6 6 5 6 7 7 7 6 5 4 4 3 5 5 5 1 1 2
7 7 6 8 10 0 9 10 6 4 8 12 16 15 16 19 19 17 16 18 17 18 17 16 16 15 12 10 7 4 5 3 5 6 5 7 8 7 8 7 5 5 4 3 5 5 4 2 1
7 8 10 9 6 6 5 8 4 4 5 11 13 16 18 16 18 18 15 17 18 17 14 14 15 14 12 12 10 11 7 7 7 7 6 5 5 7 8 6 6 6 4 4 4 4 3 4 3
4 1 3 2 3 3 2 5 3 5 5 3 9 18 19 17 16 18 19 18 16 11 14 14 13 13 12 13 13 10 8 6 5 5 6 5 5 6 7 6 6 6 5 6 5 5 5 4 3
3 4 1 1 2 5 1 4 3 5 8 9 10 7 11 18 18 16 13 12 13 13 14 12 14 13 14 14 13 13 11 8 6 6 4 4 5 4 6 6 5 5 6 6 6 5 6 5 5
5 5 4 3 2 3 1 4 6 3 8 5 12 10 4 12 16 13 14 15 14 15 15 13 14 14 14 15 14 13 11 10 9 9 7 6 5 5 6 7 6 5 6 7 6 5 6 5 5
5 5 4 3 3 6 3 5 5 3 8 5 6 3 2 10 12 14 15 14 13 12 13 12 12 12 14 15 14 12 11 8 8 8 6 6 5 5 4 6 6 7 7 6 6 5 4 4 5
5 5 2 3 1 4 3 4 2 2 3 7 7 6 2 9 12 14 16 15 14 16 13 16 14 13 14 15 13 13 12 11 9 9 6 5 5 4 5 5 5 6 7 7 6 6 5 4 5
5 7 4 2 3 4 2 5 6 7 9 8 10 11 9 4 8 13 15 17 16 17 10 9 13 14 12 14 13 12 13 13 11 9 9 8 7 5 5 6 6 6 5 5 5 5 4 6 6
5 4 3 3 3 3 4 4 3 3 5 7 9 11 11 8 6 9 11 13 16 15 11 10 10 12 12 13 12 12 12 13 12 10 10 9 8 7 7 7 7 4 4 4 4 6 6 8 5
3 3 6 4 5 2 3 3 1 3 4 4 8 9 9 8 4 5 10 14 14 12 12 12 12 11 12 12 12 13 12 12 12 11 11 10 9 9 8 7 5 5 5 5 6 7 6 7 6
Wind_Direction
179 176 238 226 107 62 69 65 19 85 89 40 347 185 129 58 344 31 136 140 144 145 151 151 148 135 134 134 133 135 134 137 144 150 156 158 161 168 171 172 170 173 203 194 211 133 145 134 135
154 235 240 111 59 63 58 25 55 66 104 330 143 142 103 87 69 119 140 157 148 147 153 153 147 140 152 143 139 141 144 145 146 151 160 163 169 174 183 190 190 193 204 211 213 213 220 173 175
272 347 3 60 64 75 96 200 193 134 189 283 126 48 58 54 74 147 128 150 147 148 150 148 150 151 157 151 145 148 150 151 154 159 164 169 177 179 200 210 207 208 210 220 218 220 226 215 202
347 143 86 58 61 77 136 182 205 153 178 201 116 82 94 6 150 155 142 149 147 151 157 150 157 156 158 155 151 156 157 155 157 162 167 174 188 193 216 224 228 224 186 221 221 194 195 207 199
22 77 51 80 64 151 206 233 190 161 156 157 164 114 74 73 123 143 146 155 148 153 159 158 162 160 163 162 155 158 163 163 163 172 178 182 193 200 210 223 319 292 173 214 192 182 182 190 190
69 340 42 49 9 306 236 178 196 216 172 129 104 110 101 120 147 151 150 155 154 156 158 158 163 164 165 170 165 173 174 171 171 181 191 183 198 194 198 187 210 225 181 236 191 188 168 177 167
65 45 49 324 310 285 254 157 209 107 135 130 141 102 106 169 156 154 150 152 156 160 155 162 169 172 172 176 177 176 176 177 186 192 187 183 188 171 199 202 277 43 296 343 232 167 152 180 189
80 70 122 252 301 288 178 174 123 172 103 135 166 143 167 181 160 152 151 157 162 163 163 166 173 174 173 174 174 178 185 190 191 189 191 185 162 190 180 160 180 127 299 310 328 316 184 218 215
141 31 304 230 215 123 159 189 111 96 147 181 129 127 129 149 154 152 156 162 167 171 174 177 176 174 169 173 165 184 190 187 190 184 185 176 194 176 183 156 151 206 263 284 320 328 172 217 231
11 329 267 254 198 190 181 201 153 176 184 188 127 106 137 150 161 162 169 173 179 178 186 191 188 181 177 181 176 188 195 176 177 182 189 177 193 194 216 222 185 224 235 259 270 277 286 228 256
116 251 263 275 214 154 178 208 173 176 209 212 195 148 155 159 168 172 180 181 186 183 187 194 192 188 190 181 182 186 195 171 177 177 188 178 188 203 208 233 220 219 237 242 246 246 240 255 254
277 259 261 300 169 159 178 164 190 206 229 255 195 162 160 171 175 182 183 183 187 191 194 192 193 193 197 184 184 190 198 184 194 178 186 190 204 215 244 254 227 233 217 251 253 248 260 257 253
224 328 313 300 198 199 149 196 222 221 217 169 153 163 172 177 181 189 189 187 189 196 199 198 196 198 198 198 190 193 204 199 200 193 195 209 226 238 271 258 237 189 231 231 245 239 243 250 247
314 304 305 335 178 171 197 216 230 191 161 153 163 173 178 184 187 188 193 195 196 199 201 200 203 201 202 207 199 197 200 201 204 207 207 210 232 252 269 241 216 222 244 257 248 245 249 236 236
309 319 352 29 151 164 179 235 232 187 169 169 181 183 184 188 190 198 195 201 201 201 197 200 199 203 205 207 206 209 203 196 203 209 211 214 220 235 239 220 214 239 283 247 230 236 234 218 207
342 350 342 350 171 177 197 269 245 168 181 183 185 187 191 197 197 201 201 205 204 203 199 199 201 199 204 205 200 219 201 202 202 211 212 219 222 220 227 222 257 243 233 288 215 230 253 236 207
10 333 324 318 223 204 210 278 253 171 192 201 194 194 197 199 210 209 208 205 204 205 198 202 200 205 202 204 201 220 192 209 197 211 212 215 214 215 229 232 269 175 236 246 240 214 232 258 267
332 321 300 285 312 257 253 262 243 189 198 209 210 201 206 210 215 212 212 210 208 205 202 197 198 204 202 207 192 220 189 214 205 214 223 218 198 207 208 202 175 186 211 250 242 257 193 243 243
281 279 287 287 298 271 257 264 271 203 203 215 218 209 210 217 220 218 216 214 209 208 199 196 192 197 186 184 192 198 203 206 217 214 222 210 192 205 202 203 180 185 224 238 253 258 183 197 195
253 296 301 287 306 213 323 291 283 216 211 210 214 214 218 224 222 218 213 210 208 202 201 193 195 187 194 201 189 191 198 203 219 212 216 219 206 206 204 205 205 206 222 220 220 234 191 206 192
263 257 289 281 326 74 316 286 354 38 241 228 230 226 225 226 222 220 213 208 206 203 197 192 191 189 186 183 176 168 171 168 201 221 218 212 212 215 209 195 210 210 229 238 226 213 253 236 204
277 214 276 297 308 325 345 317 1 344 263 221 222 223 224 225 225 225 217 202 199 202 198 189 189 186 181 176 189 196 196 200 208 211 213 206 203 192 190 202 209 221 238 243 221 211 223 181 208
287 301 324 333 304 298 22 280 325 343 11 352 235 229 218 215 209 209 209 205 197 183 183 182 182 184 183 189 197 191 204 205 197 204 210 212 184 189 196 206 215 218 231 234 221 211 219 203 242
147 263 187 138 296 266 75 317 301 9 321 310 316 290 226 212 216 208 204 191 193 180 183 171 176 180 185 196 196 197 198 201 203 195 201 188 183 191 211 211 214 229 237 237 241 226 230 206 228
202 238 281 276 243 309 150 258 280 282 352 296 311 308 229 202 199 190 183 188 183 189 186 177 180 181 190 199 196 199 202 198 202 206 195 191 185 199 212 220 225 231 231 249 259 244 237 217 214
201 264 245 260 287 332 167 312 355 198 356 346 335 343 156 189 203 192 189 181 175 181 188 190 191 186 187 197 203 194 200 202 210 214 211 206 215 225 213 216 228 238 238 235 241 253 246 246 224
135 205 355 172 160 263 1 288 250 262 358 351 2 8 293 184 187 191 184 173 172 189 185 189 192 195 190 195 199 196 192 203 207 213 213 222 230 240 229 222 238 239 248 243 238 247 246 247 256
252 126 178 194 243 284 315 290 299 347 338 346 354 357 343 298 186 181 186 183 187 195 192 184 179 192 194 196 196 198 192 197 199 201 211 215 220 219 223 221 234 236 244 233 242 246 265 257 251
149 200 86 106 305 249 292 314 199 294 306 319 338 347 346 352 195 187 185 181 197 197 192 185 175 196 192 201 193 197 198 198 199 200 207 214 219 221 221 222 236 221 200 206 240 255 260 258 250
266 221 201 233 174 20 325 272 203 270 306 300 316 341 358 7 299 183 178 179 193 199 193 191 198 195 194 197 198 199 197 195 203 207 207 201 210 213 225 237 216 221 228 230 232 247 258 259 265